Regional Weather Roundup
Issued by NWS Charleston, SC

Current Version | Previous Version | Graphics & Text | Print | Product List | Glossary On
Versions: 1 2 3 4 5 6 7 8 9 10 11 12 13 14 15 16 17 18 19 20 21 22 23 24 25 26 27 28 29 30 31 32 33 34 35 36 37 38 39 40 41 42 43 44 45 46 47 48 49 50
000 ASUS42 KCHS 251827 RWRCHS Regional Weather Roundup National Weather Service Charleston SC 200 PM EDT WED APR 25 2018 NOTE: "fair" indicates few or no clouds below 12,000 feet with no significant weather and/or obstructions to visibility. Not all stations are quality controlled. Use data with caution, especially dewpoint observations. SCZ027-030-031-034>040-042>050-251900- ...Southeast South Carolina... CITY SKY/WX TMP DP RH WIND PRES REMARKS N Charleston FAIR 77 55 46 W8 29.80F 6HR MIN TEMP: 63; 6HR MAX TEMP: 79; Waterfront Prk N/A 74 54 49 W5G12 29.65F Mount Pleasant FAIR 75 55 50 NW8 29.79F Johns Island FAIR 79 57 47 W9 29.80S Pinopolis N/A N/A N/A N/A VRB3 29.73F Moncks Corner CLOUDY 75 52 43 W5 29.79F Summerville MOCLDY 73 54 49 W7 29.81S Beaufort MCAS FAIR 79 57 46 SW16G23 29.82S 6HR MIN TEMP: 63; 6HR MAX TEMP: 79; Beaufort Arpt MOCLDY 77 55 47 W14 29.81F Hilton Head Is SUNNY 77 54 44 SW14 29.83F Walterboro FAIR 75 54 46 W13 29.81F Allendale MOCLDY 75 54 46 CALM 29.81S ...Southern Midlands and Pee Dee... CITY SKY/WX TMP DP RH WIND PRES REMARKS Georgetown FAIR 75 54 46 W15 29.79S Kingstree MOCLDY 75 54 46 W8 29.78S Orangeburg CLOUDY 74 54 49 W8 29.80F 6HR MIN TEMP: 58; 6HR MAX TEMP: 74; Barnwell NOT AVBL Aiken MOCLDY 72 52 49 W10 29.84F Manning FAIR 70 50 49 W3 29.79S Columbia FAIR 77 55 46 NW9 29.79F 6HR MIN TEMP: 60; 6HR MAX TEMP: 77; Sumter CLOUDY 75 52 43 NW8 29.76F 6HR MIN TEMP: 60; 6HR MAX TEMP: 76; Florence CLOUDY 75 55 49 VRB7 29.77F 6HR MIN TEMP: 62; 6HR MAX TEMP: 76; Myrtle Beach CLOUDY 70 61 73 S13 29.78F N Myrtle Beach PTSUNNY 69 61 75 S21 29.76F 6HR MIN TEMP: 63; 6HR MAX TEMP: 73; $$ GAZ063-065-086>088-099>101-113>116-118-119-134>141-150-251900- ...Southeast Georgia... CITY SKY/WX TMP DP RH WIND PRES REMARKS Savannah Arpt PTSUNNY 76 54 46 W15G22 29.84S 6HR MIN TEMP: 60; 6HR MAX TEMP: 79; Hunter AAF FAIR 78 55 44 W15G25 29.81 6HR MIN TEMP: 61; 6HR MAX TEMP: 78; Fort Stewart FAIR 77 54 44 W15G21 29.83S 6HR MIN TEMP: 60; 6HR MAX TEMP: 78; Statesboro FAIR 76 48 37 W9G16 29.84F Sylvania MOCLDY 75 60 58 NW9G16 29.84S Claxton CLOUDY 74 56 52 W12G20 29.85F ...CSRA, Central and far Southeast Georgia... CITY SKY/WX TMP DP RH WIND PRES REMARKS Thomson PTSUNNY 74 54 50 N9 29.88F Augusta-Bush PTSUNNY 76 54 46 W14 29.81F 6HR MIN TEMP: 58; 6HR MAX TEMP: 77; Augusta-Daniel PTSUNNY 75 55 49 VRB6 29.83F Swainsboro MOCLDY 73 55 53 NW9G17 29.86F Vidalia CLOUDY 73 54 49 W8 29.86F Eastman MOCLDY 74 42 31 NW14G22 29.91F Hazlehurst MOCLDY 75 51 43 W7 29.86F Alma FAIR 77 53 43 W14 29.87F 6HR MIN TEMP: 60; 6HR MAX TEMP: 78; Waycross FAIR 78 48 34 NW16G24 29.86F Jesup NOT AVBL Baxley PTSUNNY 73 52 46 NW13G18 29.86F Brunswick FAIR 77 52 41 W12G20 29.86F Saint Simons FAIR 78 55 44 W16 29.85F 6HR MIN TEMP: 64; 6HR MAX TEMP: 79; $$ SCZ027-028-034-036>038-045-046-048>050-GAZ119-141-251900- ...Lake and Supplemental Coastal Observations... STATION/POSITION TIME TEMP WIND PRES WAVE SWELL AIR SEA DIR/SP/G HT/PER HT/PER/DIR (UTC) (F) (DEG/KT/KT) (MB) (FT/S) (FT/S/D) Winyah Bay 1745 74 260/ 8 1008.0F Lake Murray 1720 71 270/ 9/ 11 1008.5 ACE Basin NERRS 1745 76 350/ 3 N/A Fort Pulaski 1800 72 67 290/ 14/ 17 1010.4 Sapelo Island 1800 76 270/ 12 1011.0 $$ ANZ835-935-AMZ111-154-330-350-352-354-370-450-454-472-251900- ...C-MAN and Buoy Observations... STATION/POSITION TIME TEMP WIND PRES WAVE SWELL AIR SEA DIR/SP/G HT/PER HT/PER/DIR (UTC) (F) (DEG/KT/KT) (MB) (FT/S) (FT/S/D) Buoy 41004 1810 69 240/ 17/ 19 1009.5 Buoy 41008 1750 67 66 180/ 10/ 12 1010.8F 3/ 8 3/ 80/ 8 Folly Beach CMAN 1800 67 200/ 16/ 18 1010.0F Capers Nearshore 1808 66 66 230/ 16/ 23 1009.4F Fripp Nearshore 1808 66 66 210/ 14/ 19 1009.4F STATION/POSITION TIME TEMP WIND PRES WAVE SWELL AIR SEA DIR/SP/G HT/PER HT/PER/DIR (UTC) (F) (DEG/KT/KT) (MB) (FT/S) (FT/S/D) 5E St. Marys GA 1800 69 N/A 3/ 9 Frying Pan Buoy 1810 68 71 230/ 19/ 23 1008.3 Buoy 41025 1810 70 70 230/ 16/ 21 1007.4 Cape Lookout NC 1800 200/ 14/ 18 1007.5F Buoy 41002 1810 72 73 260/ 14/ 19 1009.5 Buoy 41010 1810 74 75 270/ 12/ 17 1013.2 St Augustine FL 1800 75 69 240/ 11/ 14 1012.7F $$

USA.gov is the U.S. government's official web portal to all federal, state and local government web resources and services.